Temperature
17 17 18 18 18 17 17 17 16 16 16 16 16 16 15 15 15 15 15 14 14 14 14 14 14 14 14 14 14 14 14 14 14 15 15 15 15 15 15 15 15 15 15
17 17 18 17 17 17 17 17 16 16 16 16 16 15 15 15 15 15 15 14 14 14 14 13 13 13 13 13 14 14 14 14 14 14 14 15 15 15 15 15 15 14 14
17 17 17 17 17 17 17 17 16 16 16 16 15 15 15 15 15 15 15 14 14 14 13 13 13 13 13 13 13 13 13 13 13 13 14 14 14 15 15 15 15 15 14
17 17 17 17 17 17 17 17 16 16 16 16 15 15 15 15 15 15 14 14 14 14 13 13 13 13 13 13 13 13 13 13 13 13 13 13 14 14 14 15 15 15 14
17 17 17 17 17 17 17 17 17 16 16 16 16 15 15 15 15 15 14 14 14 14 14 13 13 13 13 13 13 13 13 13 13 13 13 13 13 13 14 14 14 14 14
16 16 16 16 16 16 16 16 16 16 16 16 16 15 15 15 15 15 14 14 14 14 14 14 13 13 13 13 13 13 13 12 12 12 12 12 13 13 13 13 13 14 14
15 15 15 15 15 15 16 16 16 16 16 16 15 15 15 15 15 14 14 14 14 14 14 14 14 14 14 13 13 13 13 13 12 12 12 12 12 12 12 13 13 13 13
14 14 14 14 15 15 15 15 15 15 15 15 15 15 15 14 14 14 14 14 14 14 14 14 14 14 14 14 14 13 13 13 13 13 12 12 12 12 12 12 12 12 13
13 13 13 13 13 14 14 14 14 14 14 14 14 14 14 14 14 14 14 14 14 14 14 14 14 14 14 14 14 14 14 13 13 13 13 12 12 12 12 12 12 12 13
12 12 12 12 12 12 12 12 12 12 12 12 13 13 13 13 13 14 14 14 14 14 14 14 14 14 14 14 14 14 14 13 13 13 13 13 12 12 12 12 12 12 12
12 12 11 11 11 11 11 12 11 11 12 12 12 12 12 13 13 13 13 13 13 13 13 13 13 14 14 14 14 14 14 13 13 13 13 13 13 12 12 12 12 12 12
12 12 11 11 11 11 11 11 11 11 11 11 12 12 12 12 12 13 13 13 13 13 13 13 13 13 13 13 13 13 13 13 13 13 13 13 12 12 12 12 12 12 12
12 11 11 11 11 11 11 11 11 11 11 11 11 11 11 11 12 12 12 12 12 13 13 13 13 13 13 13 13 13 13 13 13 12 12 12 12 12 12 12 12 12 12
12 11 11 11 11 11 11 11 11 11 11 11 11 11 11 11 11 11 11 12 12 12 12 12 12 12 12 12 12 12 12 12 12 12 12 12 12 12 12 12 11 11 11
12 11 11 11 11 11 11 11 11 10 10 11 11 11 11 11 11 11 11 11 11 11 11 11 11 12 12 12 12 11 11 11 11 11 11 11 11 11 11 11 11 11 11
12 12 11 11 11 11 11 10 10 10 10 10 10 10 10 10 10 10 11 11 11 11 11 11 11 11 11 11 11 11 11 11 11 11 11 11 11 10 10 10 10 10 10
12 12 11 11 11 11 11 10 10 10 9 10 10 10 10 10 10 10 10 10 10 10 10 10 10 10 10 10 10 10 10 10 10 10 10 10 10 10 10 10 10 9 9
12 12 11 11 11 11 11 10 10 10 10 9 9 9 9 9 10 10 10 10 10 10 9 9 9 9 9 9 9 9 9 9 9 9 9 9 9 9 9 9 9 9 9
13 12 11 11 11 11 11 10 10 10 10 9 9 9 9 9 9 9 9 10 9 9 9 9 9 9 9 9 9 9 9 9 9 9 9 9 9 8 8 8 8 8 8
13 12 12 11 11 11 11 10 10 10 10 10 9 9 9 9 9 9 9 9 9 9 9 8 8 8 8 8 8 8 8 8 8 8 8 8 8 8 8 8 8 8 8
13 12 12 11 11 11 11 10 10 10 10 10 9 9 9 9 9 9 9 9 8 8 8 8 8 8 8 8 8 8 8 8 8 8 8 8 8 7 7 7 7 7 7
13 12 12 11 11 11 11 10 10 10 10 10 10 9 9 9 9 9 9 8 8 8 8 8 8 8 8 8 8 8 8 8 8 8 8 7 7 7 6 6 6 6 6
13 12 12 11 11 11 11 10 10 10 10 10 9 9 9 9 9 8 8 8 8 8 8 8 8 8 8 8 8 8 8 7 7 7 7 6 6 6 6 6 6 6 6
13 12 12 11 11 11 11 10 10 10 10 10 9 9 9 9 8 8 8 8 8 8 8 8 8 8 8 8 8 8 7 7 7 6 6 6 5 5 5 5 5 5 5
13 12 12 11 11 11 11 10 10 10 10 10 9 9 9 8 8 8 8 8 8 8 8 8 8 8 8 8 8 7 7 7 7 6 6 5 5 5 5 5 5 4 4
13 12 12 11 11 11 11 11 10 10 10 10 9 9 8 8 8 8 8 8 8 8 8 8 8 8 8 7 7 7 7 7 6 6 6 6 5 5 5 5 4 4 4
Wind_Speed
1 2 4 4 4 4 3 3 3 3 4 4 4 4 3 2 2 2 2 3 4 4 4 6 7 7 7 7 6 6 6 6 6 4 3 2 5 5 7 11 13 12 12
2 3 4 4 4 4 3 2 2 3 4 4 4 4 3 3 2 2 2 2 2 2 3 4 5 5 8 7 7 8 7 7 6 6 3 3 4 4 4 5 8 10 11
3 4 4 3 2 2 2 2 2 2 3 3 4 4 4 4 3 3 3 2 1 1 1 2 2 3 5 5 7 7 7 7 6 5 4 3 2 2 2 3 4 5 8
4 4 3 2 1 0 0 1 2 2 3 4 4 4 4 4 4 4 4 3 2 2 1 1 1 1 2 3 4 5 6 6 6 5 4 3 2 2 3 3 3 5 5
5 5 4 3 3 3 2 2 2 2 3 3 4 4 4 4 5 5 5 4 4 3 1 1 1 1 2 2 2 3 4 4 5 4 4 3 4 3 3 3 4 2 4
8 7 6 6 6 6 5 5 4 3 2 2 3 4 5 5 7 9 7 5 4 4 3 2 2 2 3 3 3 4 5 4 4 4 3 4 4 4 3 3 3 2 3
9 9 8 8 7 7 7 6 5 4 3 2 3 3 5 6 8 9 11 6 5 4 4 3 2 2 3 3 4 5 5 7 7 4 4 4 4 5 5 4 4 4 4
9 9 8 8 8 7 7 7 6 4 4 3 3 3 4 5 6 8 10 7 5 5 5 4 4 4 4 4 4 4 5 5 6 6 5 5 5 5 5 5 4 3 3
8 8 8 7 8 8 8 8 5 5 5 4 4 4 3 4 4 5 6 5 4 5 4 4 4 5 5 6 5 5 5 5 7 9 9 8 8 8 6 3 3 3 3
7 6 7 7 7 8 8 6 5 5 5 5 5 5 4 4 4 2 5 4 4 3 2 2 4 4 5 4 5 5 5 4 2 2 3 5 5 5 7 6 5 5 3
5 6 7 8 7 7 7 6 6 6 6 7 7 7 7 7 6 4 2 3 3 3 1 0 1 2 1 1 3 4 5 3 1 2 1 1 1 1 2 3 5 5 5
5 6 7 7 7 7 8 8 8 8 8 8 7 7 7 8 9 7 5 4 3 2 1 0 1 3 4 4 2 0 1 2 2 2 1 0 0 1 1 1 3 4 4
5 5 5 6 7 7 8 9 8 8 8 7 7 7 6 6 8 12 9 7 5 3 2 2 4 6 6 5 5 5 4 3 2 1 1 0 0 1 1 1 1 1 0
3 4 4 5 5 6 6 7 7 8 7 7 7 7 6 6 7 7 6 5 6 5 4 5 7 7 5 4 4 4 3 2 2 1 1 1 1 1 2 1 1 1 1
2 2 3 3 3 4 4 5 5 5 6 5 5 5 6 6 8 9 5 4 3 3 3 3 4 4 4 4 3 3 3 3 2 1 1 1 1 1 1 1 1 1 1
1 2 2 2 2 1 2 3 4 4 7 9 8 6 4 6 9 9 9 8 7 6 5 4 4 4 4 4 3 3 3 3 3 2 2 2 1 1 1 1 1 1 2
1 0 1 2 2 1 2 3 3 4 6 8 10 11 10 10 11 10 11 12 11 9 7 6 5 5 5 4 4 4 4 4 3 3 3 3 2 2 1 1 2 2 2
2 1 1 1 2 2 2 3 3 4 4 4 7 10 12 13 14 13 11 9 9 8 6 6 6 6 5 5 5 5 4 5 4 4 4 3 3 2 2 2 2 2 3
4 2 1 1 2 2 3 3 3 4 4 4 4 6 10 9 12 14 11 7 7 7 6 6 6 6 5 5 5 5 5 5 5 4 4 4 4 3 3 3 3 4 3
3 4 3 2 2 3 3 3 3 4 4 4 5 5 5 6 6 8 7 7 7 6 6 6 6 6 5 5 5 5 5 5 6 5 5 5 4 4 4 4 3 3 3
4 3 4 3 2 2 2 3 3 3 3 3 4 5 5 5 6 6 6 6 6 6 5 5 5 6 6 5 5 6 6 5 5 5 5 5 5 5 4 4 4 4 4
5 4 3 3 3 3 3 3 3 3 3 3 3 4 7 5 5 5 5 5 5 5 5 5 5 5 5 5 5 5 5 5 5 5 5 5 5 5 5 4 5 4 4
5 5 4 3 3 4 3 3 3 3 2 2 2 3 3 4 4 4 4 4 5 5 6 5 5 5 6 7 6 5 4 5 5 5 5 5 5 5 5 5 5 5 4
5 5 5 4 3 3 3 3 3 2 3 2 2 3 3 3 3 4 4 4 4 5 6 6 6 6 8 7 7 7 7 7 8 6 5 5 5 4 4 4 4 5 4
5 5 5 4 4 4 3 3 3 3 3 3 3 3 3 3 3 3 3 4 4 4 6 7 7 7 8 8 9 9 10 10 8 7 5 3 4 4 4 4 4 4 4
5 5 4 4 4 4 4 4 3 3 3 3 3 3 4 4 3 3 3 3 3 3 4 6 8 8 9 9 10 11 10 10 9 9 7 4 4 5 5 4 5 5 5
Wind_Direction
153 139 125 129 130 130 135 148 151 148 149 151 148 144 144 143 141 159 195 202 216 225 223 220 223 209 207 206 203 200 198 187 212 229 218 196 185 195 194 201 210 214 219
138 126 123 117 118 124 130 137 154 164 169 165 158 156 162 159 155 161 178 181 204 222 228 228 229 217 213 207 205 206 204 198 200 217 203 191 196 195 187 191 205 216 220
138 130 123 116 126 142 148 149 173 181 184 177 174 181 184 179 174 177 173 164 174 199 219 232 241 226 218 212 209 208 205 202 196 199 198 178 167 148 155 197 206 213 221
129 122 111 95 96 185 260 232 228 214 206 204 203 203 200 194 189 183 174 165 159 154 152 173 217 221 226 222 215 210 202 198 195 194 189 178 173 158 158 182 210 213 223
91 79 60 45 34 16 356 329 303 269 241 217 211 212 207 201 203 194 187 182 177 173 168 173 216 214 212 211 204 196 195 201 194 193 190 181 178 169 189 181 206 208 227
67 55 38 34 33 21 9 3 353 327 287 233 220 219 221 224 218 203 192 190 191 195 209 229 255 253 246 238 227 207 195 195 199 193 195 200 198 189 176 176 174 176 251
55 47 36 32 28 18 14 14 4 346 335 301 263 238 241 245 239 220 205 190 195 205 212 224 247 238 232 236 252 244 228 219 205 187 192 202 195 193 179 183 190 201 222
46 40 30 26 22 12 13 8 355 349 344 332 312 282 264 263 250 231 211 192 195 209 213 219 236 255 240 219 221 236 242 239 227 218 213 215 210 198 191 191 194 210 234
34 27 18 17 16 11 7 356 350 349 349 343 335 327 305 301 292 244 194 175 193 212 220 226 235 250 260 231 211 232 253 260 254 240 235 233 229 218 197 181 188 207 241
16 13 12 16 18 12 2 356 351 352 354 359 7 6 355 339 336 287 178 167 184 200 212 242 255 263 270 233 202 214 248 265 243 239 240 242 234 229 215 206 206 212 222
9 22 23 19 19 16 11 10 8 12 21 26 27 22 20 13 10 23 122 155 171 166 167 233 311 329 349 135 176 201 237 237 197 193 186 181 171 207 220 215 208 210 215
30 35 29 24 25 22 23 22 22 23 29 27 27 27 21 16 19 26 50 84 116 128 136 125 347 44 64 72 85 78 231 136 123 120 118 131 231 265 265 244 227 227 231
45 36 27 27 29 27 30 26 24 24 27 25 25 24 16 14 17 26 36 50 66 77 71 72 72 67 60 54 53 64 74 87 106 120 146 206 281 333 34 41 41 47 321
50 28 21 26 29 30 32 30 29 24 21 21 21 16 9 12 14 10 14 28 43 55 58 58 61 60 53 47 46 46 50 73 99 111 111 75 52 53 50 44 37 22 358
48 18 14 22 31 35 37 33 29 29 23 21 16 12 11 11 359 2 18 23 32 55 59 47 41 39 37 31 33 38 38 48 61 65 82 77 63 56 43 37 36 17 321
32 1 358 1 17 37 31 25 28 27 28 35 34 28 15 8 4 23 38 44 53 71 69 57 47 44 40 31 30 33 34 32 35 46 54 52 48 43 24 13 358 311 296
184 293 358 11 22 34 47 45 24 6 21 32 28 28 30 26 32 40 50 54 52 56 62 55 48 43 39 38 37 40 34 24 29 43 44 35 32 28 18 354 336 318 307
167 156 100 37 38 52 67 69 58 42 20 359 3 21 33 41 44 45 48 55 48 45 50 50 44 40 37 39 39 37 35 32 34 36 34 28 24 19 7 347 328 311 305
164 162 122 87 75 79 79 75 63 55 44 18 8 10 18 38 45 44 48 56 57 50 46 46 42 40 39 37 37 39 40 37 30 28 24 18 13 9 358 344 334 325 315
169 175 146 117 97 92 83 78 69 60 48 37 29 10 5 38 47 41 44 49 53 51 48 47 43 41 37 35 32 33 35 33 26 23 14 8 2 359 350 341 335 326 312
157 152 137 114 111 115 106 99 92 81 65 51 32 26 56 65 60 54 50 48 47 44 41 42 40 35 30 27 26 26 28 24 17 9 3 357 352 345 338 330 323 316 311
149 144 138 136 130 124 122 121 115 104 89 74 45 43 61 69 68 62 55 51 46 42 37 40 41 34 28 23 20 20 19 13 4 355 348 342 338 335 334 333 331 329 330
147 146 141 136 135 133 124 125 129 128 119 105 90 75 71 74 72 68 62 53 48 42 37 38 38 29 22 20 18 13 3 349 335 329 330 332 336 338 339 340 340 340 342
151 152 152 149 145 145 147 149 151 149 145 135 120 108 100 93 84 77 71 63 57 48 42 39 37 28 21 15 7 0 350 337 328 320 322 329 337 340 343 346 345 343 344
153 155 158 162 165 165 162 161 163 163 158 153 144 133 124 114 103 92 80 71 69 58 46 38 30 22 15 10 4 359 357 360 3 360 353 353 358 356 356 356 355 349 348
160 161 162 163 168 172 174 176 178 174 167 159 152 147 139 130 121 108 97 86 77 60 44 33 26 22 16 10 5 8 15 23 28 31 34 30 25 17 11 13 12 9 3
Height
1498 1500 1502 1503 1504 1505 1506 1507 1507 1507 1507 1507 1507 1507 1507 1507 1506 1506 1506 1506 1506 1506 1507 1508 1509 1511 1512 1514 1516 1519 1522 1524 1525 1528 1531 1533 1535 1537 1539 1541 1542 1543 1544
1497 1499 1501 1502 1503 1504 1505 1505 1506 1506 1506 1506 1506 1506 1506 1506 1505 1505 1504 1504 1504 1503 1504 1504 1505 1506 1507 1509 1510 1513 1515 1517 1520 1522 1525 1528 1530 1532 1534 1536 1538 1539 1540
1496 1498 1500 1501 1501 1502 1503 1504 1505 1505 1505 1505 1505 1505 1505 1505 1505 1504 1504 1503 1502 1502 1502 1502 1502 1503 1503 1504 1506 1507 1509 1512 1514 1517 1519 1522 1524 1527 1529 1531 1533 1535 1536
1494 1496 1498 1499 1500 1500 1501 1502 1503 1503 1503 1504 1504 1504 1504 1504 1504 1503 1503 1502 1502 1501 1501 1500 1500 1501 1501 1502 1502 1504 1505 1507 1509 1511 1513 1516 1519 1521 1524 1526 1528 1530 1532
1493 1494 1496 1496 1497 1498 1499 1500 1500 1501 1501 1501 1502 1502 1502 1502 1503 1503 1502 1502 1501 1501 1501 1500 1500 1500 1500 1500 1501 1501 1502 1503 1505 1507 1508 1510 1513 1515 1518 1521 1524 1526 1527
1493 1493 1494 1495 1495 1496 1496 1497 1497 1498 1498 1499 1499 1499 1500 1500 1500 1501 1501 1501 1501 1501 1501 1500 1500 1500 1500 1500 1500 1501 1501 1502 1502 1503 1505 1507 1508 1511 1513 1515 1518 1520 1522
1493 1494 1494 1494 1494 1494 1494 1494 1494 1494 1494 1495 1495 1496 1496 1497 1497 1498 1498 1499 1499 1500 1500 1500 1500 1500 1500 1500 1500 1500 1501 1501 1502 1502 1503 1504 1505 1507 1509 1511 1513 1515 1517
1495 1494 1494 1493 1493 1492 1492 1491 1491 1490 1490 1490 1491 1492 1492 1493 1494 1494 1495 1496 1497 1498 1498 1499 1499 1500 1500 1500 1500 1500 1500 1501 1501 1501 1502 1503 1504 1505 1505 1507 1508 1510 1512
1497 1496 1495 1494 1493 1492 1491 1489 1488 1487 1487 1486 1487 1487 1488 1489 1490 1491 1492 1493 1494 1495 1496 1497 1498 1499 1499 1499 1499 1499 1499 1499 1499 1500 1500 1501 1502 1503 1503 1504 1505 1507 1508
1501 1499 1498 1496 1494 1493 1491 1489 1488 1486 1485 1485 1484 1485 1485 1486 1487 1487 1488 1490 1491 1492 1493 1495 1496 1497 1497 1497 1498 1498 1498 1498 1498 1498 1499 1499 1500 1501 1501 1502 1503 1504 1504
1505 1503 1501 1499 1497 1495 1493 1491 1489 1488 1486 1485 1484 1484 1484 1484 1484 1485 1486 1487 1488 1490 1491 1492 1493 1494 1495 1496 1496 1496 1496 1496 1496 1496 1497 1497 1498 1499 1499 1500 1500 1501 1501
1508 1506 1504 1502 1500 1498 1496 1494 1492 1490 1488 1487 1485 1484 1484 1483 1483 1484 1484 1485 1486 1488 1489 1490 1491 1492 1493 1494 1494 1494 1494 1494 1494 1495 1495 1496 1496 1497 1497 1498 1498 1498 1498
1511 1509 1507 1505 1503 1501 1499 1497 1495 1493 1491 1489 1487 1486 1485 1485 1484 1484 1484 1485 1485 1486 1487 1488 1490 1491 1491 1492 1492 1492 1492 1492 1492 1493 1493 1494 1495 1495 1495 1495 1495 1495 1495
1514 1512 1510 1508 1506 1504 1502 1500 1497 1495 1493 1492 1490 1489 1488 1487 1486 1486 1485 1485 1486 1486 1487 1488 1489 1489 1490 1490 1491 1491 1491 1491 1491 1492 1492 1492 1493 1493 1493 1493 1493 1493 1493
1516 1514 1512 1510 1508 1506 1504 1502 1500 1498 1496 1494 1493 1491 1490 1489 1488 1488 1487 1487 1487 1487 1487 1487 1488 1488 1489 1489 1490 1490 1490 1490 1490 1491 1491 1491 1491 1492 1491 1491 1491 1490 1490
1517 1515 1513 1511 1509 1508 1506 1504 1502 1500 1498 1496 1495 1494 1493 1492 1491 1490 1489 1489 1488 1488 1488 1488 1488 1488 1489 1489 1489 1489 1489 1490 1490 1490 1490 1490 1490 1490 1490 1489 1489 1488 1488
1517 1516 1514 1512 1511 1509 1507 1506 1504 1502 1500 1499 1498 1496 1495 1494 1493 1492 1492 1491 1490 1490 1490 1490 1489 1489 1489 1490 1490 1490 1490 1490 1490 1490 1490 1490 1489 1489 1488 1488 1487 1486 1486
1518 1516 1515 1514 1512 1511 1509 1508 1506 1504 1503 1502 1501 1499 1498 1497 1496 1495 1494 1494 1493 1492 1492 1492 1492 1492 1491 1491 1491 1491 1490 1490 1490 1490 1489 1489 1488 1488 1487 1486 1485 1484 1483
1517 1516 1515 1514 1513 1512 1511 1510 1508 1507 1505 1504 1504 1503 1502 1501 1499 1498 1498 1497 1496 1495 1495 1494 1494 1493 1493 1492 1492 1491 1491 1490 1490 1489 1488 1488 1487 1486 1485 1484 1483 1482 1480
1517 1516 1515 1515 1514 1513 1512 1511 1510 1509 1508 1507 1506 1505 1505 1504 1503 1501 1500 1499 1498 1498 1497 1496 1496 1495 1494 1493 1493 1492 1491 1490 1489 1488 1487 1486 1485 1484 1483 1481 1480 1479 1477
1516 1516 1515 1515 1514 1514 1514 1513 1512 1512 1511 1510 1509 1508 1507 1506 1505 1504 1503 1501 1500 1499 1498 1497 1496 1495 1494 1493 1492 1491 1490 1489 1487 1486 1485 1484 1482 1481 1480 1479 1478 1476 1474
1515 1515 1515 1515 1515 1515 1514 1514 1514 1513 1513 1512 1511 1511 1510 1508 1507 1506 1505 1503 1502 1500 1499 1498 1497 1496 1494 1493 1492 1490 1489 1487 1486 1484 1483 1481 1480 1479 1478 1476 1475 1473 1471
1515 1515 1515 1515 1515 1515 1515 1515 1515 1515 1514 1514 1513 1512 1511 1510 1509 1507 1506 1504 1503 1501 1500 1498 1497 1496 1494 1493 1491 1489 1488 1486 1484 1482 1481 1480 1478 1477 1476 1474 1472 1471 1469
1514 1514 1514 1515 1515 1515 1515 1515 1515 1515 1515 1515 1514 1513 1512 1511 1510 1508 1507 1505 1503 1502 1500 1499 1497 1496 1494 1492 1491 1489 1487 1485 1483 1482 1480 1479 1477 1476 1474 1472 1470 1469 1467
1514 1514 1514 1514 1514 1515 1515 1515 1515 1515 1515 1515 1514 1513 1512 1511 1510 1509 1507 1505 1504 1503 1501 1500 1498 1497 1495 1493 1491 1489 1487 1485 1483 1482 1480 1478 1476 1474 1473 1471 1469 1467 1466
1513 1513 1513 1513 1514 1514 1514 1515 1515 1515 1515 1514 1514 1513 1512 1511 1510 1509 1507 1506 1504 1503 1502 1501 1499 1497 1496 1494 1492 1490 1488 1486 1484 1482 1480 1478 1476 1474 1472 1470 1469 1467 1465